[[{"header":{"parameterUnit":"m.s-1","parameterCategory":1,"la1":30.2991,"la2":30.254,"lo1":-89.0895,"lo2":-89.0444,"dy":0.0017,"dx":0.0017,"nx":28,"ny":28,"refTime":"2024-05-22T03:00:00:Z","depth":0,"parameterNumber":2,"parameterNumberName":"U-component_of_WINDS"},"data":[0,0,0,0,0,0,0,0,0,0,0,0,0,0,0,0,0,0,0,0,0,0,0,0,0,0,0,0,0,0,0,0,0,0,0,0,0,0,0,0,0,0,0,0,0,0,0,0,0,0,0,0,0,0,0,0,0,0,-1.2351,-1.2351,0,-1.2402,-1.2403,-1.2403,-1.2429,-1.2429,-1.2429,-1.2429,-1.2481,-1.2483,-1.2484,0,0,0,0,0,0,0,0,0,0,0,0,0,-1.2275,-1.2276,-1.2351,-1.2351,-1.2352,-1.2402,-1.2403,-1.2403,-1.2429,-1.2429,-1.2429,-1.2429,-1.2481,-1.2482,-1.2484,0,0,0,0,0,0,0,0,0,0,0,0,0,-1.2315,-1.2277,-1.235,-1.237,-1.2373,-1.2402,-1.2403,-1.2404,-1.2429,-1.2429,-1.2429,-1.2429,-1.248,-1.2482,-1.2484,-1.2498,0,0,-1.2491,-1.2492,0,0,0,0,0,0,0,0,-1.2313,-1.2318,-1.2367,-1.2369,-1.2372,-1.2409,-1.2395,-1.2435,-1.2429,-1.2407,-1.2429,-1.2429,-1.2457,-1.2461,-1.2471,-1.25,-1.2502,-1.2491,-1.2492,-1.2493,-1.2494,0,0,0,0,0,0,0,-1.231,-1.2316,-1.2371,-1.2368,-1.2371,-1.2377,-1.2383,-1.2403,-1.2432,-1.2409,-1.2411,-1.2417,-1.2459,-1.2469,-1.2472,-1.2503,-1.2491,-1.2493,-1.2494,-1.2495,-1.2547,-1.2547,0,0,0,0,0,0,-1.2304,-1.2313,-1.2369,-1.2373,-1.2342,-1.2379,-1.2385,-1.2397,-1.2432,-1.2437,-1.2417,-1.2418,-1.2465,-1.247,-1.2474,-1.2493,-1.2493,-1.2495,-1.2496,-1.2547,-1.2547,-1.2547,0,0,0,0,0,0,-1.2302,-1.2309,-1.2367,-1.2344,-1.2351,-1.238,-1.2393,-1.2398,-1.2408,-1.2437,-1.2443,-1.2422,-1.2465,-1.2471,-1.2492,-1.2495,-1.2496,-1.2498,-1.2546,-1.2547,-1.2547,-1.2529,0,0,0,0,0,0,-1.23,-1.2308,-1.2313,-1.2343,-1.2353,-1.2384,-1.2393,-1.2399,-1.2412,-1.2414,-1.2444,-1.2449,-1.2466,-1.2489,-1.2494,-1.2498,-1.25,-1.2546,-1.2547,-1.2547,-1.2529,-1.2528,-1.2527,0,0,0,0,0,-1.2297,-1.2306,-1.2313,-1.232,-1.2359,-1.2384,-1.2389,-1.2409,-1.2412,-1.2417,-1.2436,-1.2448,-1.2494,-1.249,-1.2497,-1.2501,-1.2546,-1.2546,-1.2547,-1.253,-1.2528,-1.2527,0,0,0,0,0,0,-1.2275,-1.231,-1.2319,-1.2337,-1.2357,-1.2388,-1.2395,-1.2407,-1.2426,-1.2427,-1.2451,-1.2458,-1.2476,-1.2491,-1.2487,-1.2516,-1.2521,-1.2522,-1.2506,-1.2505,-1.2504,-1.25,-1.2501,0,0,0,0,0,-1.2272,-1.2288,-1.2318,-1.2332,-1.2342,-1.2367,-1.2378,-1.2392,-1.2413,-1.2422,-1.2442,-1.2463,-1.2482,-1.2495,-1.2514,-1.2532,-1.2539,-1.2538,-1.2537,-1.2536,-1.2537,-1.2548,-1.2548,-1.2548,-1.2548,-1.2548,0,0,-1.2266,-1.2287,-1.2296,-1.2328,-1.2345,-1.2362,-1.2374,-1.2391,-1.2404,-1.2425,-1.2445,-1.2461,-1.2486,-1.2505,-1.2515,-1.2518,-1.2539,-1.2536,-1.2535,-1.2537,-1.2548,-1.2548,-1.2548,-1.2548,-1.2548,-1.2548,0,0,-1.2264,-1.2282,-1.2296,-1.2313,-1.2339,-1.2356,-1.2359,-1.2388,-1.2399,-1.2421,-1.2437,-1.2453,-1.2485,-1.2502,-1.2515,-1.2521,-1.2533,-1.2527,-1.2522,-1.2533,-1.2533,-1.2533,-1.2536,-1.2536,-1.2528,-1.2528,-1.2528,0,-1.2254,-1.228,-1.2301,-1.2318,-1.2331,-1.2351,-1.2365,-1.2381,-1.2412,-1.2421,-1.2424,-1.2466,-1.2484,-1.2508,-1.251,-1.252,-1.2524,-1.2524,-1.2531,-1.2532,-1.2532,-1.2535,-1.2536,-1.2527,-1.2527,-1.2527,-1.2527,0,-1.2266,-1.2284,-1.2292,-1.2321,-1.2336,-1.2351,-1.2375,-1.2387,-1.24,-1.2417,-1.2438,-1.2461,-1.2486,-1.2492,-1.2504,-1.2518,-1.252,-1.2527,-1.2532,-1.2531,-1.2534,-1.2535,-1.2526,-1.2526,-1.2526,-1.2527,0,0,-1.2251,-1.2293,-1.2295,-1.2309,-1.234,-1.2354,-1.2371,-1.2395,-1.2405,-1.2426,-1.2441,-1.2468,-1.2476,-1.249,-1.2505,-1.2514,-1.2518,-1.252,-1.2521,-1.2519,-1.2535,-1.253,-1.253,-1.2526,-1.2526,-1.2526,-1.2533,0,-1.2254,-1.2284,-1.2304,-1.2327,-1.2344,-1.2363,-1.2378,-1.2398,-1.2415,-1.2432,-1.245,-1.2469,-1.2477,-1.2486,-1.2496,-1.2515,-1.2522,-1.2515,-1.254,-1.2541,-1.2533,-1.2532,-1.2526,-1.2531,-1.2534,-1.2535,-1.2535,0,-1.2261,-1.2282,-1.2306,-1.2335,-1.2343,-1.2356,-1.238,-1.2396,-1.242,-1.2431,-1.2448,-1.2463,-1.2482,-1.2486,-1.2512,-1.2507,-1.2519,-1.253,-1.2531,-1.2534,-1.2538,-1.2535,-1.2534,-1.2534,-1.2537,-1.2537,-1.2536,0,-1.2248,-1.2282,-1.2301,-1.2312,-1.2347,-1.2356,-1.237,-1.2394,-1.2408,-1.2429,-1.2438,-1.2461,-1.2474,-1.2492,-1.2513,-1.2514,-1.2537,-1.2543,-1.2547,-1.2547,-1.2551,-1.2551,-1.2551,-1.2558,-1.2558,-1.2558,-1.2558,0,-1.2249,-1.2263,-1.2296,-1.2307,-1.2324,-1.2347,-1.2363,-1.238,-1.2401,-1.2417,-1.2435,-1.2449,-1.2476,-1.2494,-1.2511,-1.253,-1.2536,-1.2545,-1.255,-1.2544,-1.2543,-1.2552,-1.2552,-1.2559,-1.2558,-1.2558,-1.2558,0,-1.2237,-1.2259,-1.2282,-1.2313,-1.2321,-1.2332,-1.2359,-1.2371,-1.2389,-1.2409,-1.2415,-1.2442,-1.2464,-1.2487,-1.2516,-1.2527,-1.2547,-1.2552,-1.2538,-1.2541,-1.2544,-1.2544,-1.2551,-1.2553,-1.2558,-1.2558,-1.2558,0,-1.2236,-1.2248,-1.228,-1.2292,-1.2307,-1.2325,-1.2339,-1.2363,-1.2377,-1.2406,-1.2415,-1.2438,-1.2458,-1.2492,-1.2515,-1.2538,-1.2544,-1.2545,-1.2548,-1.2542,-1.2545,-1.2544,-1.2545,-1.2544,-1.2544,-1.2544,-1.2544,0,-1.2233,-1.2243,-1.2263,-1.2286,-1.2302,-1.2322,-1.2343,-1.2351,-1.2379,-1.2394,-1.2416,-1.2432,-1.2462,-1.2486,-1.2511,-1.2527,-1.254,-1.2543,-1.2545,-1.254,-1.2531,-1.2536,-1.2536,-1.2543,-1.2543,-1.2543,-1.2543,-1.2543,-1.2227,-1.2238,-1.2263,-1.2284,-1.2302,-1.2321,-1.2334,-1.2353,-1.2373,-1.24,-1.2412,-1.2435,-1.246,-1.2496,-1.2512,-1.253,-1.2534,-1.2537,-1.2538,-1.2538,-1.2537,-1.2528,-1.2535,-1.2535,-1.2535,-1.2535,-1.2535,0,-1.2224,-1.2241,-1.2261,-1.2289,-1.2306,-1.2317,-1.234,-1.2354,-1.2373,-1.2395,-1.2415,-1.2441,-1.2464,-1.2489,-1.2513,-1.2523,-1.253,-1.2529,-1.2528,-1.2532,-1.2532,-1.2528,-1.2523,-1.2523,-1.2523,-1.2523,-1.2523,-1.2523,-1.2225,-1.2245,-1.2258,-1.2288,-1.2305,-1.2327,-1.234,-1.2358,-1.2375,-1.2404,-1.2423,-1.2439,-1.2463,-1.2489,-1.251,-1.2517,-1.2525,-1.2523,-1.2531,-1.2531,-1.2532,-1.2533,-1.2529,-1.2524,-1.2524,-1.2529,-1.2529,-1.2529]},{"header":{"parameterUnit":"m.s-1","parameterCategory":1,"la1":30.2991,"la2":30.254,"lo1":-89.0895,"lo2":-89.0444,"dy":0.0017,"dx":0.0017,"nx":28,"ny":28,"refTime":"2024-05-22T03:00:00:Z","depth":0,"parameterNumber":3,"parameterNumberName":"V-component_of_WINDS"},"data":[0,0,0,0,0,0,0,0,0,0,0,0,0,0,0,0,0,0,0,0,0,0,0,0,0,0,0,0,0,0,0,0,0,0,0,0,0,0,0,0,0,0,0,0,0,0,0,0,0,0,0,0,0,0,0,0,0,0,2.4326,2.4325,0,2.4308,2.4308,2.4308,2.4226,2.4224,2.4222,2.422,2.4203,2.4205,2.4206,0,0,0,0,0,0,0,0,0,0,0,0,0,2.4288,2.4289,2.4326,2.4325,2.4325,2.4308,2.4308,2.4308,2.4226,2.4224,2.4221,2.4219,2.4203,2.4205,2.4206,0,0,0,0,0,0,0,0,0,0,0,0,0,2.4291,2.429,2.4326,2.4282,2.4278,2.4308,2.4308,2.4308,2.4227,2.4224,2.4221,2.4218,2.4202,2.4204,2.4206,2.4277,0,0,2.4213,2.4214,0,0,0,0,0,0,0,0,2.4291,2.4293,2.4289,2.4285,2.4281,2.4266,2.4289,2.4298,2.4227,2.4246,2.422,2.4217,2.4227,2.4227,2.423,2.4277,2.4276,2.4213,2.4214,2.4215,2.4216,0,0,0,0,0,0,0,2.4291,2.4293,2.4319,2.4289,2.4284,2.4264,2.4261,2.429,2.4253,2.4244,2.4238,2.4237,2.4224,2.4228,2.4229,2.4276,2.4213,2.4215,2.4216,2.4217,2.438,2.4383,0,0,0,0,0,0,2.4297,2.4293,2.4319,2.4318,2.4279,2.4267,2.4264,2.4274,2.4252,2.4246,2.424,2.4234,2.4226,2.4227,2.4228,2.431,2.4215,2.4217,2.4218,2.4377,2.4381,2.4384,0,0,0,0,0,0,2.4296,2.43,2.432,2.4304,2.4305,2.4271,2.4283,2.4275,2.4279,2.4249,2.4242,2.4251,2.4224,2.4225,2.4266,2.4308,2.4218,2.422,2.4373,2.4378,2.4383,2.4474,0,0,0,0,0,0,2.4296,2.43,2.4327,2.4305,2.4306,2.4358,2.4285,2.4277,2.4283,2.4274,2.4258,2.4252,2.4221,2.4263,2.4268,2.4309,2.4221,2.4369,2.4376,2.4381,2.4467,2.4481,2.4494,0,0,0,0,0,2.4294,2.4353,2.4328,2.4332,2.4339,2.4361,2.4361,2.4325,2.4286,2.4313,2.4294,2.4252,2.4303,2.4268,2.4273,2.4315,2.4367,2.4374,2.4381,2.4461,2.4479,2.4493,0,0,0,0,0,0,2.4381,2.435,2.4322,2.4375,2.4371,2.4347,2.4379,2.4344,2.4351,2.4343,2.4298,2.4295,2.4342,2.4333,2.4295,2.4383,2.4328,2.4336,2.4388,2.4404,2.4417,2.4418,2.4223,0,0,0,0,0,2.4406,2.4426,2.4398,2.4448,2.4447,2.4414,2.4422,2.4394,2.4388,2.4386,2.437,2.4366,2.4381,2.4392,2.4404,2.4465,2.4461,2.4497,2.451,2.4521,2.4529,2.4561,2.4577,2.4407,2.4407,2.4407,0,0,2.4458,2.4444,2.446,2.4465,2.4459,2.4481,2.4413,2.4439,2.4456,2.439,2.4428,2.4416,2.4409,2.446,2.4482,2.4454,2.4575,2.453,2.4539,2.4541,2.457,2.4586,2.4601,2.4412,2.4411,2.441,0,0,2.4565,2.4556,2.4597,2.4592,2.4583,2.456,2.457,2.4551,2.4541,2.4577,2.4529,2.4548,2.4574,2.4571,2.4573,2.4679,2.4641,2.4684,2.4753,2.4785,2.4798,2.481,2.4848,2.4862,2.4692,2.4692,2.4692,0,2.4632,2.4663,2.4622,2.4652,2.4656,2.4598,2.4639,2.4636,2.4632,2.4636,2.4604,2.4636,2.4627,2.4677,2.4703,2.4707,2.4717,2.4686,2.48,2.4811,2.4821,2.4857,2.4872,2.4697,2.4697,2.4696,2.4696,0,2.4745,2.4768,2.4802,2.4799,2.4807,2.4842,2.4807,2.482,2.4792,2.4773,2.4811,2.4798,2.4807,2.4816,2.4789,2.4863,2.4846,2.4808,2.4751,2.4843,2.4876,2.489,2.4705,2.4703,2.4701,2.47,0,0,2.4906,2.488,2.4894,2.4892,2.4877,2.4894,2.4927,2.4935,2.4947,2.4946,2.4973,2.4997,2.4961,2.4964,2.4935,2.4964,2.5049,2.4922,2.4921,2.4946,2.513,2.5159,2.5176,2.5024,2.5026,2.5028,2.5131,0,2.5009,2.5063,2.5028,2.5088,2.5108,2.5053,2.5082,2.5077,2.506,2.5075,2.5056,2.5074,2.5025,2.5026,2.5052,2.5033,2.5085,2.5025,2.5049,2.505,2.5053,2.5193,2.5224,2.5322,2.5144,2.5146,2.5147,0,2.5136,2.514,2.5202,2.5184,2.5191,2.5218,2.5222,2.5237,2.523,2.5216,2.5219,2.5184,2.5215,2.5159,2.5202,2.5162,2.517,2.5162,2.5165,2.5166,2.5105,2.5199,2.5352,2.5367,2.5167,2.5166,2.5164,0,2.5247,2.5269,2.5309,2.5309,2.5289,2.5308,2.5301,2.5291,2.5298,2.5302,2.5307,2.5315,2.5319,2.5326,2.5294,2.5257,2.5342,2.5283,2.5331,2.5332,2.5352,2.5351,2.5509,2.5356,2.5356,2.5356,2.5356,0,2.5366,2.5406,2.5359,2.5384,2.5427,2.5386,2.5431,2.5417,2.5409,2.5431,2.5383,2.5405,2.5361,2.5378,2.5353,2.5393,2.5395,2.5385,2.5378,2.5389,2.5391,2.5394,2.5386,2.536,2.5359,2.5358,2.5357,0,2.5498,2.5468,2.5508,2.5485,2.5481,2.5514,2.5495,2.5517,2.5497,2.5525,2.5529,2.5497,2.5515,2.5484,2.5497,2.548,2.5536,2.5518,2.5539,2.5534,2.5583,2.558,2.5749,2.577,2.5604,2.5605,2.5607,0,2.5576,2.5606,2.5586,2.5597,2.5592,2.561,2.5617,2.5578,2.5587,2.5582,2.5605,2.5618,2.5627,2.5658,2.5637,2.5647,2.5629,2.5688,2.5631,2.5641,2.5631,2.563,2.5633,2.57,2.5702,2.5704,2.5705,0,2.5717,2.5701,2.5713,2.572,2.5729,2.5733,2.5733,2.5744,2.5703,2.5716,2.5733,2.574,2.5754,2.5768,2.5773,2.5766,2.5729,2.5723,2.5735,2.5747,2.5758,2.5754,2.5571,2.572,2.5718,2.5717,2.5716,2.5716,2.5825,2.5849,2.5839,2.5854,2.585,2.5851,2.5871,2.5853,2.5867,2.5875,2.585,2.5874,2.5866,2.5869,2.5866,2.5883,2.5857,2.5874,2.5879,2.5884,2.5892,2.5755,2.5884,2.5884,2.5883,2.5883,2.5883,0,2.5964,2.5955,2.5969,2.5971,2.5983,2.5946,2.5945,2.5957,2.5978,2.5974,2.5983,2.6003,2.6017,2.5997,2.6007,2.6025,2.6009,2.6029,2.6028,2.6027,2.5914,2.5903,2.6042,2.6042,2.6042,2.6042,2.6042,2.6042,2.6038,2.6077,2.606,2.6096,2.6087,2.6109,2.6111,2.6112,2.6108,2.6133,2.6144,2.613,2.612,2.6129,2.614,2.6134,2.614,2.6167,2.6155,2.605,2.6035,2.602,2.6009,2.6168,2.6169,2.6266,2.6267,2.6268]}]]